�N����,����,�g�[���i���ԁj���x,�g�[�����x,��g�[���i���ցj���x,����
 2003/09/01, 0:00,31.3,61,31.3,27.5
 2003/09/01, 0:15,31.6,60,31.2,26.8
 2003/09/01, 0:30,31.7,60,31.2,26.9
 2003/09/01, 0:45,31.8,61,31.2,26.9
 2003/09/01, 1:00,31.8,61,31.2,26.9
 2003/09/01, 1:15,31.9,61,31.2,27
 2003/09/01, 1:30,31.8,61,31.2,27
 2003/09/01, 1:45,31.9,62,31.2,27.1
 2003/09/01, 2:00,31.9,62,31.2,27.1
 2003/09/01, 2:15,31.9,62,31.2,27.2
 2003/09/01, 2:30,31.9,62,31.2,27.2
 2003/09/01, 2:45,31.9,62,31.2,28.2
 2003/09/01, 3:00,31.9,62,31.2,28.2
 2003/09/01, 3:15,31.9,62,31.2,28.2
 2003/09/01, 3:30,31.9,62,31.2,28.2
 2003/09/01, 3:45,31.9,62,31.2,28.2
 2003/09/01, 4:00,31.9,62,31.2,28.3
 2003/09/01, 4:15,32,62,31.2,28.3
 2003/09/01, 4:30,31.9,62,31.2,28.3
 2003/09/01, 4:45,32,62,31.2,28.4
 2003/09/01, 5:00,32,62,31.2,28.4
 2003/09/01, 5:15,31.9,61,31.3,28.6
 2003/09/01, 5:30,31.8,60,31.1,28.6
 2003/09/01, 5:45,31.6,62,30.8,28.4
 2003/09/01, 6:00,31.5,62,30.7,28.5
 2003/09/01, 6:15,31.5,62,30.7,28.5
 2003/09/01, 6:30,31.4,61,30.5,28.5
 2003/09/01, 6:45,31.5,62,30.7,28.5
 2003/09/01, 7:00,31.5,62,30.6,27.1
 2003/09/01, 7:15,31.5,62,30.6,27.1
 2003/09/01, 7:30,31.5,61,30.6,25.1
 2003/09/01, 7:45,31.5,61,30.6,24.9
 2003/09/01, 8:00,31.5,60,30.6,24.6
 2003/09/01, 8:15,31.4,60,30.6,24.7
 2003/09/01, 8:30,31.4,61,30.6,24.7
 2003/09/01, 8:45,31.5,62,30.6,24.8
 2003/09/01, 9:00,31.5,61,30.6,24.9
 2003/09/01, 9:15,31.4,61,30.6,24.9
 2003/09/01, 9:30,31.5,62,30.7,26.7
 2003/09/01, 9:45,31.6,62,30.7,26
 2003/09/01,10:00,31.7,61,30.9,26.1
 2003/09/01,10:15,31.7,62,30.9,26.1
 2003/09/01,10:30,31.7,62,30.9,26.2
 2003/09/01,10:45,31.6,62,30.9,26.2
 2003/09/01,11:00,31.6,61,30.9,26.3
 2003/09/01,11:15,31.7,62,31,26.3
 2003/09/01,11:30,31.8,61,31,26.4
 2003/09/01,11:45,31.8,61,31.4,26.4
 2003/09/01,12:00,31.8,62,31.4,27.7
 2003/09/01,12:15,31.9,62,31.3,27.7
 2003/09/01,12:30,32,62,31.4,27.7
 2003/09/01,12:45,32.2,62,31.4,27.7
 2003/09/01,13:00,32.3,63,31.4,27.7
 2003/09/01,13:15,32.4,63,31.5,27.8
 2003/09/01,13:30,32.5,63,31.6,27.8
 2003/09/01,13:45,32.7,62,31.7,27.4
 2003/09/01,14:00,32.7,62,31.8,27.4
 2003/09/01,14:15,32.7,60,31.9,27.5
 2003/09/01,14:30,32.9,61,31.9,26.8
 2003/09/01,14:45,32.8,61,31.9,26.9
 2003/09/01,15:00,32.8,59,31.9,26.7
 2003/09/01,15:15,32.7,57,31.9,26.7
 2003/09/01,15:30,32.4,53,31.7,26.8
 2003/09/01,15:45,32.2,54,31.5,26.8
 2003/09/01,16:00,31.9,54,31.3,27.3
 2003/09/01,16:15,31.7,53,31.1,27.3
 2003/09/01,16:30,31.5,52,31,27.3
 2003/09/01,16:45,31.3,52,30.9,27.4
 2003/09/01,17:00,31.2,53,30.8,27.4
 2003/09/01,17:15,31.1,52,30.7,27.5
 2003/09/01,17:30,31,53,30.5,27.5
 2003/09/01,17:45,31,54,30.7,27.9
 2003/09/01,18:00,31.1,55,30.8,26.2
 2003/09/01,18:15,31.2,55,30.8,26.3
 2003/09/01,18:30,31.2,57,30.8,26.3
 2003/09/01,18:45,31.3,57,30.9,26.4
 2003/09/01,19:00,31.4,57,30.8,26.7
 2003/09/01,19:15,31.5,58,30.8,26.7
 2003/09/01,19:30,31.6,59,30.8,26.7
 2003/09/01,19:45,31.7,60,31,25.3
 2003/09/01,20:00,31.8,61,31,25.4
 2003/09/01,20:15,31.9,63,31.1,25.9
 2003/09/01,20:30,31.9,60,31.1,25.4
 2003/09/01,20:45,31.6,55,31,25.5
 2003/09/01,21:00,31.3,53,30.8,25.5
 2003/09/01,21:15,31.2,54,30.7,26.2
 2003/09/01,21:30,31.2,54,30.5,26.3
 2003/09/01,21:45,31,51,30.5,26.3
 2003/09/01,22:00,31,54,30.4,26.5
 2003/09/01,22:15,31.2,56,30.5,26.5
 2003/09/01,22:30,31.4,59,30.7,26.5
 2003/09/01,22:45,31.2,57,30.7,26.7
 2003/09/01,23:00,31,54,30.6,26.8
 2003/09/01,23:15,30.9,55,30.6,26.8
 2003/09/01,23:30,30.8,56,30.5,27.1
 2003/09/01,23:45,30.8,56,30.4,27.1
 2003/09/02, 0:00,30.6,55,30.3,27.2
 2003/09/02, 0:15,30.5,54,30.3,25.4
 2003/09/02, 0:30,30.6,55,30.2,25.4
 2003/09/02, 0:45,30.5,56,30.1,25.6
 2003/09/02, 1:00,30.2,51,30.1,25.6
 2003/09/02, 1:15,29.8,49,30.1,26.8
 2003/09/02, 1:30,30.4,55,30.2,26.4
 2003/09/02, 1:45,30.7,59,30.4,26.4
 2003/09/02, 2:00,30.9,60,30.5,26.4
 2003/09/02, 2:15,31,62,30.5,26.5
 2003/09/02, 2:30,31.1,62,30.6,26.5
 2003/09/02, 2:45,31.1,63,30.7,26.6
 2003/09/02, 3:00,31.2,63,30.7,26.6
 2003/09/02, 3:15,31.2,63,30.7,26.6
 2003/09/02, 3:30,31.2,63,30.7,28
 2003/09/02, 3:45,31.3,63,30.7,28
 2003/09/02, 4:00,31.2,63,30.7,28
 2003/09/02, 4:15,31.2,63,30.7,28
 2003/09/02, 4:30,31.2,64,30.7,28.1
 2003/09/02, 4:45,31.2,64,30.8,28.1
 2003/09/02, 5:00,31.2,64,30.8,28.1
 2003/09/02, 5:15,31.2,64,30.7,28.1
 2003/09/02, 5:30,31.2,64,30.8,28.2
 2003/09/02, 5:45,31.2,63,30.7,28.5
 2003/09/02, 6:00,31.2,64,30.7,26.4
 2003/09/02, 6:15,31.2,64,30.7,26.5
 2003/09/02, 6:30,31,64,30.6,26.6
 2003/09/02, 6:45,30.7,67,30.7,26.6
 2003/09/02, 7:00,31.1,66,30.8,26.7
 2003/09/02, 7:15,31.3,65,31.1,26.7
 2003/09/02, 7:30,31.4,65,31.4,25
 2003/09/02, 7:45,31.4,65,31.1,25
 2003/09/02, 8:00,31.5,65,30.9,25.1
 2003/09/02, 8:15,31.5,65,30.9,25.2
 2003/09/02, 8:30,31.5,65,30.9,25.5
 2003/09/02, 8:45,31.5,64,30.8,25.3
 2003/09/02, 9:00,31.6,64,30.8,25.3
 2003/09/02, 9:15,31.5,64,30.9,25.4
 2003/09/02, 9:30,31.3,64,30.9,25.4
 2003/09/02, 9:45,31.3,64,30.9,25.5
 2003/09/02,10:00,31.3,63,30.9,25.5
 2003/09/02,10:15,31.4,62,30.9,26.7
 2003/09/02,10:30,31.5,61,30.8,26.7
 2003/09/02,10:45,31.5,62,30.9,26.8
 2003/09/02,11:00,31.6,62,31,26.2
 2003/09/02,11:15,31.8,62,31.1,26.2
 2003/09/02,11:30,31.8,61,31.1,26.3
 2003/09/02,11:45,31.9,60,31.2,26.3
 2003/09/02,12:00,32,59,31.2,26.4
 2003/09/02,12:15,31.9,61,31.2,26.4
 2003/09/02,12:30,31.9,61,31.2,26.5
 2003/09/02,12:45,31.9,61,31.2,26.5
 2003/09/02,13:00,32,61,31.3,26.6
 2003/09/02,13:15,32,61,31.3,26.6
 2003/09/02,13:30,32.2,60,31.4,26.7
 2003/09/02,13:45,32.5,60,31.6,26.7
 2003/09/02,14:00,32.5,59,31.6,26.8
 2003/09/02,14:15,32.8,58,31.8,28.3
 2003/09/02,14:30,32.9,56,31.8,28.3
 2003/09/02,14:45,33.1,55,31.9,28.3
 2003/09/02,15:00,33.1,54,31.9,28.4
 2003/09/02,15:15,33.3,54,32.1,26.4
 2003/09/02,15:30,33.1,56,32.1,26.4
 2003/09/02,15:45,33.1,57,32.1,26.5
 2003/09/02,16:00,33.1,57,32.1,26.6
 2003/09/02,16:15,33,57,32.1,26.6
 2003/09/02,16:30,32.9,57,32.1,26.7
 2003/09/02,16:45,32.7,57,32,26.7
 2003/09/02,17:00,32.7,57,32,26.8
 2003/09/02,17:15,32.6,57,32,26.8
 2003/09/02,17:30,32.5,58,32,26.9
 2003/09/02,17:45,32.4,58,32,27
 2003/09/02,18:00,32.4,57,31.8,27.9
 2003/09/02,18:15,32.3,57,31.9,28
 2003/09/02,18:30,32.3,57,31.7,28
 2003/09/02,18:45,32.3,57,31.7,28
 2003/09/02,19:00,32.3,58,31.8,26.1
 2003/09/02,19:15,32.3,58,31.7,26.1
 2003/09/02,19:30,32.3,58,31.7,26.2
 2003/09/02,19:45,32.2,56,31.7,26.2
 2003/09/02,20:00,31.8,54,31.5,26.3
 2003/09/02,20:15,31.5,52,31.3,26.4
 2003/09/02,20:30,31.3,51,31.1,25.8
 2003/09/02,20:45,31.1,51,31.1,25.9
 2003/09/02,21:00,31,53,30.9,25.9
 2003/09/02,21:15,30.9,53,30.9,26
 2003/09/02,21:30,30.9,53,30.9,26.1
 2003/09/02,21:45,30.7,54,31.2,25.8
 2003/09/02,22:00,30.9,55,30.9,24.9
 2003/09/02,22:15,31,55,30.7,25
 2003/09/02,22:30,31,54,30.7,25.1
 2003/09/02,22:45,30.9,55,30.5,25.1
 2003/09/02,23:00,30.8,54,30.4,25.2
 2003/09/02,23:15,30.8,54,30.4,25.3
 2003/09/02,23:30,31,55,30.7,25.3
 2003/09/02,23:45,31.2,59,30.9,25.4
 2003/09/03, 0:00,31.4,60,31,25.5
 2003/09/03, 0:15,31.6,61,31.1,25.5
 2003/09/03, 0:30,31.6,63,31.2,25.6
 2003/09/03, 0:45,31.7,63,31.2,25.7
 2003/09/03, 1:00,31.7,63,31.3,25.7
 2003/09/03, 1:15,31.7,63,31.3,25.8
 2003/09/03, 1:30,31.7,64,31.3,25.9
 2003/09/03, 1:45,31.8,64,31.4,26
 2003/09/03, 2:00,31.8,64,31.4,26
 2003/09/03, 2:15,31.8,64,31.5,26.1
 2003/09/03, 2:30,31.6,60,31.3,26.2
 2003/09/03, 2:45,31.3,58,31.1,26.2
 2003/09/03, 3:00,31.1,56,30.8,26.3
 2003/09/03, 3:15,31,57,30.8,26.4
 2003/09/03, 3:30,31.1,62,30.9,26.4
 2003/09/03, 3:45,31.2,63,31.1,26.5
 2003/09/03, 4:00,31.2,64,31.1,26.5
 2003/09/03, 4:15,31.3,64,31.1,26.6
 2003/09/03, 4:30,31.4,64,31.2,26.7
 2003/09/03, 4:45,31.4,64,31.2,26.7
 2003/09/03, 5:00,31.4,65,31.3,26.8
 2003/09/03, 5:15,31.3,66,31.3,26.9
 2003/09/03, 5:30,31.2,64,31.3,29.3
 2003/09/03, 5:45,31.1,60,31.1,29.2
 2003/09/03, 6:00,30.9,60,30.8,28.4
 2003/09/03, 6:15,30.9,60,30.6,28.4
 2003/09/03, 6:30,31,63,30.9,28.4
 2003/09/03, 6:45,31.2,64,31,28.5
 2003/09/03, 7:00,31.4,65,31.1,28.5
 2003/09/03, 7:15,31.5,65,31.1,26.7
 2003/09/03, 7:30,31.4,68,31.2,26.8
 2003/09/03, 7:45,31.5,68,31.4,24.6
 2003/09/03, 8:00,31.5,68,31.3,24.7
 2003/09/03, 8:15,31.5,69,31.3,24.9
 2003/09/03, 8:30,31.7,68,31.2,24.9
 2003/09/03, 8:45,31.7,68,31.1,25
 2003/09/03, 9:00,31.7,67,31.3,25.8
 2003/09/03, 9:15,31.7,67,31.4,25.8
 2003/09/03, 9:30,31.8,67,31.3,25.9
 2003/09/03, 9:45,31.8,67,31.4,25.9
 2003/09/03,10:00,31.8,66,31.4,26.1
 2003/09/03,10:15,31.8,64,31.4,26.2
 2003/09/03,10:30,31.9,64,31.4,26.3
 2003/09/03,10:45,32,64,31.4,26.3
 2003/09/03,11:00,32,64,31.5,26.4
 2003/09/03,11:15,32,64,31.5,26.4
 2003/09/03,11:30,32,64,31.5,26.5
 2003/09/03,11:45,32.1,63,31.5,26.5
 2003/09/03,12:00,32.3,62,31.6,26.9
 2003/09/03,12:15,32.4,59,31.7,26.9
 2003/09/03,12:30,32.4,59,31.7,27
 2003/09/03,12:45,32.3,60,31.7,27
 2003/09/03,13:00,32.2,60,31.7,27.1
 2003/09/03,13:15,32.2,61,31.7,27.1
 2003/09/03,13:30,32.3,60,31.7,27.2
 2003/09/03,13:45,32.5,59,31.8,27.2
 2003/09/03,14:00,32.5,58,32,27.3
 2003/09/03,14:15,32.4,58,32.1,27.3
 2003/09/03,14:30,32.4,59,32,27.3
 2003/09/03,14:45,32.4,59,32,28
 2003/09/03,15:00,32.4,58,32,28
 2003/09/03,15:15,32.4,59,32,28.1
 2003/09/03,15:30,32.4,59,32.2,28.1
 2003/09/03,15:45,32.3,58,32.3,28.1
 2003/09/03,16:00,32.1,56,32.4,28.2
 2003/09/03,16:15,32,58,32.2,28.2
 2003/09/03,16:30,31.9,59,32,28.2
 2003/09/03,16:45,31.8,59,31.8,28.3
 2003/09/03,17:00,31.8,59,32,28.3
 2003/09/03,17:15,31.7,58,31.5,28.3
 2003/09/03,17:30,31.5,57,31.6,28.4
 2003/09/03,17:45,31.4,58,31.5,28.8
 2003/09/03,18:00,31.5,56,31.5,26.9
 2003/09/03,18:15,31.5,57,31.5,27
 2003/09/03,18:30,31.7,59,31.5,27
 2003/09/03,18:45,31.8,59,31.6,27
 2003/09/03,19:00,31.8,60,31.5,27.1
 2003/09/03,19:15,31.8,61,31.4,27.2
 2003/09/03,19:30,31.9,61,31.4,27.2
 2003/09/03,19:45,32,61,31.3,27.3
 2003/09/03,20:00,32,61,31.3,27.3
 2003/09/03,20:15,32.1,62,31.4,27.3
 2003/09/03,20:30,32.2,64,31.4,27.4
 2003/09/03,20:45,32.3,63,31.4,27.4
 2003/09/03,21:00,32.4,62,31.6,27.5
 2003/09/03,21:15,32.3,63,31.6,27
 2003/09/03,21:30,32.3,63,31.7,25.6
 2003/09/03,21:45,32.4,63,31.7,25.6
 2003/09/03,22:00,32.4,63,31.7,25.3
 2003/09/03,22:15,32.4,63,31.7,25.3
 2003/09/03,22:30,32.4,62,31.7,25.4
 2003/09/03,22:45,32.4,61,31.7,25.5
 2003/09/03,23:00,32.3,61,31.7,25.5
 2003/09/03,23:15,32.2,61,31.7,25.6
 2003/09/03,23:30,32.1,61,31.7,25.7
 2003/09/03,23:45,32,61,31.7,25.8
 2003/09/04, 0:00,32,61,31.7,25.8
 2003/09/04, 0:15,32,61,31.7,25.9
 2003/09/04, 0:30,32,62,31.7,26
 2003/09/04, 0:45,32,62,31.7,26.1
 2003/09/04, 1:00,32,61,31.7,26.1
 2003/09/04, 1:15,31.9,61,31.7,26.2
 2003/09/04, 1:30,31.9,61,31.7,26.3
 2003/09/04, 1:45,32,62,31.7,26.4
 2003/09/04, 2:00,32.1,62,31.7,26.4
 2003/09/04, 2:15,32.1,61,31.6,26.5
 2003/09/04, 2:30,32.1,61,31.6,26.6
 2003/09/04, 2:45,32.1,61,31.5,26.6
 2003/09/04, 3:00,32.1,61,31.5,26.7
 2003/09/04, 3:15,32.2,61,31.5,29.5
 2003/09/04, 3:30,32.2,60,31.5,28.9
 2003/09/04, 3:45,32.2,61,31.5,28.9
 2003/09/04, 4:00,32.2,61,31.5,28.9
 2003/09/04, 4:15,32.2,61,31.5,28.9
 2003/09/04, 4:30,32.2,61,31.5,28.9
 2003/09/04, 4:45,32.1,62,31.5,29
 2003/09/04, 5:00,32.1,62,31.5,29
 2003/09/04, 5:15,32,62,31.5,29
 2003/09/04, 5:30,32,61,31.5,29
 2003/09/04, 5:45,31.9,61,31.4,26.2
 2003/09/04, 6:00,31.9,62,31.4,26.3
 2003/09/04, 6:15,31.9,63,31.2,26.3
 2003/09/04, 6:30,31.7,61,30.9,26.8
 2003/09/04, 6:45,31.6,61,30.8,26.8
 2003/09/04, 7:00,31.1,62,30.9,26.9
 2003/09/04, 7:15,31.5,61,30.9,26.9
 2003/09/04, 7:30,31.5,61,30.8,27
 2003/09/04, 7:45,31.6,61,31.1,27
 2003/09/04, 8:00,31.7,61,30.9,27.1
 2003/09/04, 8:15,31.7,60,30.5,27.1
 2003/09/04, 8:30,31.7,60,30.4,25.8
 2003/09/04, 8:45,31.7,60,30.6,25.8
 2003/09/04, 9:00,31.7,59,30.6,25.9
 2003/09/04, 9:15,31.7,59,30.7,26
 2003/09/04, 9:30,31.7,58,30.5,26
 2003/09/04, 9:45,31.6,58,30.1,26.1
 2003/09/04,10:00,31.6,58,30.2,26.1
 2003/09/04,10:15,-9.9,-9.9,-9.9,-9.9
 2003/09/04,10:30,-9.9,-9.9,-9.9,-9.9
 2003/09/04,10:45,-9.9,-9.9,-9.9,-9.9
 2003/09/04,11:00,-9.9,-9.9,-9.9,-9.9
 2003/09/04,11:15,31.4,53,30.9,26.9
 2003/09/04,11:30,31.5,53,30.6,26.9
 2003/09/04,11:45,31.5,53,30.6,27
 2003/09/04,12:00,31.8,53,30.6,27
 2003/09/04,12:15,31.8,54,30.6,27
 2003/09/04,12:30,31.9,52,30.6,26.5
 2003/09/04,12:45,32.1,52,30.6,26.6
 2003/09/04,13:00,32.1,51,30.8,26.6
 2003/09/04,13:15,32.1,51,30.8,26.7
 2003/09/04,13:30,32.2,51,30.9,26.7
 2003/09/04,13:45,32.2,50,30.9,26.8
 2003/09/04,14:00,32.2,50,30.9,26.8
 2003/09/04,14:15,32.2,50,30.9,27.6
 2003/09/04,14:30,32,50,30.9,27.7
 2003/09/04,14:45,32.2,50,30.9,27.7
 2003/09/04,15:00,32.2,49,31,27.7
 2003/09/04,15:15,32.2,50,31,27.7
 2003/09/04,15:30,32.3,49,31,27.8
 2003/09/04,15:45,32.4,48,31.1,27.8
 2003/09/04,16:00,32.3,46,31.2,28.1
 2003/09/04,16:15,32.2,47,31.2,28.1
 2003/09/04,16:30,32,49,31.3,28.1
 2003/09/04,16:45,32.1,49,31.3,28.2
 2003/09/04,17:00,32,48,31.3,28.2
 2003/09/04,17:15,32,48,31.1,28.2
 2003/09/04,17:30,32,48,31.1,28.2
 2003/09/04,17:45,32,49,31,28.3
 2003/09/04,18:00,32,49,30.7,28.3
 2003/09/04,18:15,31.8,50,30.6,28.3
 2003/09/04,18:30,31.8,51,30.6,27.3
 2003/09/04,18:45,31.8,52,30.4,27.4
 2003/09/04,19:00,31.8,52,30.5,26
 2003/09/04,19:15,31.8,55,30.7,26.1
 2003/09/04,19:30,31.8,53,30.3,26.1
 2003/09/04,19:45,31.8,54,30.3,26.2
 2003/09/04,20:00,31.8,56,30.4,26.2
 2003/09/04,20:15,31.9,54,30.4,26.3
 2003/09/04,20:30,31.9,53,30.2,26.8
 2003/09/04,20:45,31.7,54,30.4,26.8
 2003/09/04,21:00,31.6,54,30.3,26.9
 2003/09/04,21:15,31.5,54,30.3,26.9
 2003/09/04,21:30,31.6,54,30.4,26.2
 2003/09/04,21:45,31.7,54,30.4,26.2
 2003/09/04,22:00,31.8,56,30.4,25.1
 2003/09/04,22:15,31.6,54,30.6,25.2
 2003/09/04,22:30,31.3,54,30.6,25.3
 2003/09/04,22:45,31.3,55,30.6,25.3
 2003/09/04,23:00,31.1,55,30.6,25.4
 2003/09/04,23:15,31.4,55,30.6,25.5
 2003/09/04,23:30,31.5,56,30.5,25.5
 2003/09/04,23:45,31.6,55,30.4,25.6
 2003/09/05, 0:00,31.7,54,30.4,25.7
 2003/09/05, 0:15,31.6,54,30.4,25.7
 2003/09/05, 0:30,31.7,54,30.2,25.8
 2003/09/05, 0:45,31.7,54,30.3,25.7
 2003/09/05, 1:00,31.7,54,30.1,25.2
 2003/09/05, 1:15,31.7,55,30.2,25.3
 2003/09/05, 1:30,31.6,56,30.1,25.4
 2003/09/05, 1:45,31.5,56,30.1,25.4
 2003/09/05, 2:00,31.6,56,30.1,25.5
 2003/09/05, 2:15,31.6,56,30.1,25.6
 2003/09/05, 2:30,31.5,56,30.1,25.7
 2003/09/05, 2:45,31.5,56,30.1,25.7
 2003/09/05, 3:00,31.5,56,30.1,25.8
 2003/09/05, 3:15,31.5,56,30.1,25.8
 2003/09/05, 3:30,31.5,56,30,25.9
 2003/09/05, 3:45,31.5,56,30,26
 2003/09/05, 4:00,31.5,56,30,26
 2003/09/05, 4:15,31.5,56,29.9,26.1
 2003/09/05, 4:30,31.5,56,29.9,26.2
 2003/09/05, 4:45,31.5,56,29.9,26.2
 2003/09/05, 5:00,31.5,56,29.9,26.3
 2003/09/05, 5:15,31.5,56,29.9,26.4
 2003/09/05, 5:30,31.5,56,29.8,27.6
 2003/09/05, 5:45,31.4,56,29.4,25.8
 2003/09/05, 6:00,31.4,55,29,25.8
 2003/09/05, 6:15,31.5,55,29.4,25.9
 2003/09/05, 6:30,31.5,56,28.9,26.3
 2003/09/05, 6:45,31.4,55,29,26.3
 2003/09/05, 7:00,31.4,55,29,26.4
 2003/09/05, 7:15,31.3,55,28.9,25.6
 2003/09/05, 7:30,31.3,55,28.8,25.7
 2003/09/05, 7:45,31.4,54,29.2,25.3
 2003/09/05, 8:00,30.9,55,29,25.4
 2003/09/05, 8:15,30.7,56,29.1,25.4
 2003/09/05, 8:30,31,56,29,25.5
 2003/09/05, 8:45,31,55,29,25.7
 2003/09/05, 9:00,31,55,29.4,25.5
 2003/09/05, 9:15,31.1,55,29.5,25.3
 2003/09/05, 9:30,31.1,55,29.6,25.3
 2003/09/05, 9:45,31.2,55,29.7,25.4
 2003/09/05,10:00,31.2,55,29.8,25.4
 2003/09/05,10:15,31.2,55,29.9,25.5
 2003/09/05,10:30,31.2,56,29.9,25.5
 2003/09/05,10:45,31.3,56,30,25.6
 2003/09/05,11:00,31.3,56,30,25.7
 2003/09/05,11:15,31.3,56,30.1,25.7
 2003/09/05,11:30,31.4,56,30.1,25.8
 2003/09/05,11:45,31.4,55,30.1,25.9
 2003/09/05,12:00,31.5,55,30.2,25.9
 2003/09/05,12:15,31.5,55,30.3,26
 2003/09/05,12:30,31.5,55,30.3,26
 2003/09/05,12:45,31.6,55,30.4,26.1
 2003/09/05,13:00,31.5,54,30.4,26.1
 2003/09/05,13:15,31.5,55,30.4,26.2
 2003/09/05,13:30,31.5,54,30.4,26.2
 2003/09/05,13:45,31.5,55,30.4,26.3
 2003/09/05,14:00,31.5,55,30.5,26.4
 2003/09/05,14:15,31.6,55,30.5,26.4
 2003/09/05,14:30,31.7,55,30.5,26.5
 2003/09/05,14:45,31.7,56,30.5,26.5
 2003/09/05,15:00,31.6,58,30.6,28.3
 2003/09/05,15:15,31.7,58,30.6,28.3
 2003/09/05,15:30,31.8,56,30.7,28.3
 2003/09/05,15:45,31.9,55,30.8,28.3
 2003/09/05,16:00,32.1,57,30.9,26.7
 2003/09/05,16:15,32.1,57,30.9,26.8
 2003/09/05,16:30,32,57,30.9,26.8
 2003/09/05,16:45,32,57,30.9,26.9
 2003/09/05,17:00,32,56,30.9,26.9
 2003/09/05,17:15,32,56,30.9,27
 2003/09/05,17:30,31.9,57,30.9,27
 2003/09/05,17:45,31.8,57,30.9,27.1
 2003/09/05,18:00,31.8,57,30.8,28.2
 2003/09/05,18:15,31.6,57,30.6,27
 2003/09/05,18:30,31.6,57,30.6,27
 2003/09/05,18:45,31.6,58,30.6,25.8
 2003/09/05,19:00,31.6,58,30.5,25.9
 2003/09/05,19:15,31.6,59,30.6,25.9
 2003/09/05,19:30,31.6,59,30.6,26.3
 2003/09/05,19:45,31.5,59,30.4,26.3
 2003/09/05,20:00,31.6,59,30.4,26.4
 2003/09/05,20:15,31.6,56,30.5,26.4
 2003/09/05,20:30,31.6,54,30.2,26.7
 2003/09/05,20:45,31.6,53,30.4,26.3
 2003/09/05,21:00,31.6,52,30.2,26.3
 2003/09/05,21:15,31.7,51,30.3,25.6
 2003/09/05,21:30,31.7,51,30.3,25.6
 2003/09/05,21:45,31.7,53,30.3,24.8
 2003/09/05,22:00,31.7,54,30.1,24.9
 2003/09/05,22:15,31.7,54,30.1,24.9
 2003/09/05,22:30,31.7,54,30.1,25
 2003/09/05,22:45,31.6,54,29.9,25.1
 2003/09/05,23:00,31.6,52,30.1,25.2
 2003/09/05,23:15,31.6,52,29.9,25.2
 2003/09/05,23:30,31.6,53,29.9,25.3
 2003/09/05,23:45,31.6,52,30,25.4
 2003/09/06, 0:00,31.6,51,29.8,25.4
 2003/09/06, 0:15,31.6,52,29.9,25.5
 2003/09/06, 0:30,31.6,50,30,25.6
 2003/09/06, 0:45,31.5,53,30.1,25.6
 2003/09/06, 1:00,31.3,52,30.1,27.5
 2003/09/06, 1:15,31.2,53,30.1,27.5
 2003/09/06, 1:30,31.2,54,30.1,27.5
 2003/09/06, 1:45,31.3,54,30.1,27.5
 2003/09/06, 2:00,31.3,54,30.1,27.6
 2003/09/06, 2:15,31.2,54,30.1,27.6
 2003/09/06, 2:30,31.2,55,30.1,27.6
 2003/09/06, 2:45,31.2,55,30.1,27.7
 2003/09/06, 3:00,31.1,55,30.1,27.7
 2003/09/06, 3:15,31,54,30.1,27.7
 2003/09/06, 3:30,31,55,30,27.7
 2003/09/06, 3:45,30.9,55,30,27.8
 2003/09/06, 4:00,30.8,56,30,27.8
 2003/09/06, 4:15,30.8,56,29.9,27.8
 2003/09/06, 4:30,30.8,55,30,27.9
 2003/09/06, 4:45,30.8,55,30,27.9
 2003/09/06, 5:00,30.8,55,30,27.9
 2003/09/06, 5:15,30.7,55,29.9,28.3
 2003/09/06, 5:30,30.8,56,29.9,28.3
 2003/09/06, 5:45,30.8,55,29.9,28.3
 2003/09/06, 6:00,30.8,56,29.9,28.3
 2003/09/06, 6:15,30.9,57,29.8,26.9
 2003/09/06, 6:30,30.8,56,29.8,26.9
 2003/09/06, 6:45,30.6,58,29.8,26.9
 2003/09/06, 7:00,30.8,59,29.9,27.2
 2003/09/06, 7:15,30.8,59,30,27.2
 2003/09/06, 7:30,30.9,58,29.7,27.3
 2003/09/06, 7:45,31,58,29.9,27.3
 2003/09/06, 8:00,30.9,59,30.1,25.7
 2003/09/06, 8:15,30.6,65,30.1,25.8
 2003/09/06, 8:30,30.8,64,30.1,25.8
 2003/09/06, 8:45,31,64,30.2,25.9
 2003/09/06, 9:00,31.1,63,30.2,25.9
 2003/09/06, 9:15,31,63,30.3,26
 2003/09/06, 9:30,31,64,30.4,25.1
 2003/09/06, 9:45,31,62,30.2,25.2
 2003/09/06,10:00,31,60,30.2,25.2
 2003/09/06,10:15,31,60,30.3,25.3
 2003/09/06,10:30,31.2,60,30.4,25.4
 2003/09/06,10:45,31.3,60,30.6,26.3
 2003/09/06,11:00,31.3,60,30.5,26.3
 2003/09/06,11:15,31.3,59,30.4,26.3
 2003/09/06,11:30,31.4,60,30.4,26.3
 2003/09/06,11:45,31.4,60,30.5,26.4
 2003/09/06,12:00,31.4,60,30.6,26.4
 2003/09/06,12:15,31.3,61,30.6,26.4
 2003/09/06,12:30,31.2,61,30.7,26.5
 2003/09/06,12:45,31.5,61,30.7,26.5
 2003/09/06,13:00,31.7,60,30.8,26.6
 2003/09/06,13:15,31.9,60,30.9,26.6
 2003/09/06,13:30,32,59,31,26.7
 2003/09/06,13:45,31.8,60,31,25.3
 2003/09/06,14:00,32,59,31.1,25.4
 2003/09/06,14:15,32,59,31.1,25.4
 2003/09/06,14:30,32,59,31.1,25.5
 2003/09/06,14:45,32,59,31,25.6
 2003/09/06,15:00,31.9,60,30.9,25.6
 2003/09/06,15:15,31.8,60,30.9,25.7
 2003/09/06,15:30,31.8,60,30.9,25.8
 2003/09/06,15:45,31.8,60,30.9,25.8
 2003/09/06,16:00,31.7,61,30.8,25.9
 2003/09/06,16:15,31.7,61,30.8,26
 2003/09/06,16:30,31.7,61,30.8,26
 2003/09/06,16:45,31.6,61,30.8,26.1
 2003/09/06,17:00,31.6,61,30.8,26.2
 2003/09/06,17:15,31.6,61,30.8,26.2
 2003/09/06,17:30,31.6,62,30.9,27.3
 2003/09/06,17:45,31.6,61,30.8,27.3
 2003/09/06,18:00,31.6,62,30.8,27.3
 2003/09/06,18:15,31.5,63,30.9,27.4
 2003/09/06,18:30,31.3,64,30.7,27.4
 2003/09/06,18:45,31.2,65,30.6,27.4
 2003/09/06,19:00,31.1,65,30.5,27.5
 2003/09/06,19:15,31,64,30.5,27.5
 2003/09/06,19:30,30.3,61,30.4,27.5
 2003/09/06,19:45,30,60,30.3,27.6
 2003/09/06,20:00,29.7,61,30.2,27.6
 2003/09/06,20:15,29.8,57,30.2,27.7
 2003/09/06,20:30,30,58,30.1,27.7
 2003/09/06,20:45,30.2,57,30.1,27.7
 2003/09/06,21:00,30.1,55,30,27.8
 2003/09/06,21:15,30,57,30,28.1
 2003/09/06,21:30,30,56,29.9,28.1
 2003/09/06,21:45,30.2,57,29.9,26.5
 2003/09/06,22:00,30.1,54,29.9,25.4
 2003/09/06,22:15,30.1,55,29.8,25.4
 2003/09/06,22:30,30.1,55,29.7,25.5
 2003/09/06,22:45,30,54,29.8,25.6
 2003/09/06,23:00,30.1,55,29.7,25.6
 2003/09/06,23:15,30,54,29.7,25.7
 2003/09/06,23:30,29.9,54,29.7,26.9
 2003/09/06,23:45,29.8,54,29.6,27
 2003/09/07, 0:00,30.2,55,29.7,27
 2003/09/07, 0:15,30.4,58,29.6,27
 2003/09/07, 0:30,30.6,59,29.6,27
 2003/09/07, 0:45,30.7,59,29.5,27.1
 2003/09/07, 1:00,30.7,59,29.6,27.1
 2003/09/07, 1:15,30.8,59,29.6,27.1
 2003/09/07, 1:30,30.7,59,29.6,27.2
 2003/09/07, 1:45,30.8,59,29.5,27.2
 2003/09/07, 2:00,30.7,59,29.4,27.2
 2003/09/07, 2:15,30.7,60,29.5,27.3
 2003/09/07, 2:30,30.8,59,29.4,27.3
 2003/09/07, 2:45,30.7,59,29.4,26.2
 2003/09/07, 3:00,30.7,59,29.4,26.3
 2003/09/07, 3:15,30.7,59,29.3,26.3
 2003/09/07, 3:30,30.7,59,29.3,26.4
 2003/09/07, 3:45,30.7,59,29.2,26.4
 2003/09/07, 4:00,30.6,59,29.2,26.4
 2003/09/07, 4:15,30.6,58,29.1,26.5
 2003/09/07, 4:30,30.6,58,29.2,26.5
 2003/09/07, 4:45,30.6,58,29,26.6
 2003/09/07, 5:00,30.5,58,29,26.6
 2003/09/07, 5:15,30.5,58,28.8,26.6
 2003/09/07, 5:30,30.5,58,28.9,26.7
 2003/09/07, 5:45,30.5,58,28.9,26.7
 2003/09/07, 6:00,30.4,58,28.9,26.8
 2003/09/07, 6:15,30.5,58,29,26.8
 2003/09/07, 6:30,30.4,58,29,26.8
 2003/09/07, 6:45,30.5,58,29.1,26.6
 2003/09/07, 7:00,30.6,58,29,26.6
 2003/09/07, 7:15,30.6,57,29.4,26.6
 2003/09/07, 7:30,30.6,57,28.8,26.6
 2003/09/07, 7:45,30.6,57,28.6,26.7
 2003/09/07, 8:00,30.5,57,28.5,26.7
 2003/09/07, 8:15,30.5,58,28.6,26.8
 2003/09/07, 8:30,30.3,59,28.7,26.8
 2003/09/07, 8:45,30.4,57,28.4,26.7
 2003/09/07, 9:00,30.5,58,28.5,24.8
 2003/09/07, 9:15,30.6,57,28.7,24.9
 2003/09/07, 9:30,30.6,57,28.9,24.9
 2003/09/07, 9:45,30.6,57,29,24.9
 2003/09/07,10:00,30.7,57,29.1,25
 2003/09/07,10:15,30.7,57,29.2,25.1
 2003/09/07,10:30,30.7,57,29.2,25.1
 2003/09/07,10:45,30.7,57,29.3,25.2
 2003/09/07,11:00,30.7,57,29.3,25.2
 2003/09/07,11:15,30.8,57,29.4,25.3
 2003/09/07,11:30,30.9,57,29.5,25.4
 2003/09/07,11:45,30.9,57,29.5,25.4
 2003/09/07,12:00,31,57,29.5,25.5
 2003/09/07,12:15,31,57,29.6,25.5
 2003/09/07,12:30,31.1,57,29.6,25.6
 2003/09/07,12:45,31.1,57,29.8,25.7
 2003/09/07,13:00,31.2,57,29.7,25.7
 2003/09/07,13:15,31.3,57,29.8,25.8
 2003/09/07,13:30,31.4,56,29.9,25.8
 2003/09/07,13:45,31.5,56,29.9,25.9
 2003/09/07,14:00,31.6,55,30,25.9
 2003/09/07,14:15,31.7,55,30,26
 2003/09/07,14:30,31.7,55,30,26.1
 2003/09/07,14:45,32,54,30.1,26.1
 2003/09/07,15:00,31.9,55,30.2,26.2
 2003/09/07,15:15,32,54,30.2,26.2
 2003/09/07,15:30,32,55,30.4,26.3
 2003/09/07,15:45,31.6,51,30.6,27
 2003/09/07,16:00,31.4,53,30.6,26.3
 2003/09/07,16:15,31.2,54,30.5,26.3
 2003/09/07,16:30,31.2,54,30.4,26.3
 2003/09/07,16:45,31.1,54,30.3,26.4
 2003/09/07,17:00,31,55,30.3,26.4
 2003/09/07,17:15,31,53,30.3,26.5
 2003/09/07,17:30,31,53,30.2,26.5
 2003/09/07,17:45,31,55,30.2,26.6
 2003/09/07,18:00,31,56,30.2,27
 2003/09/07,18:15,31.1,56,30.1,27
 2003/09/07,18:30,30.8,56,30,25.6
 2003/09/07,18:45,30.6,55,30,25.6
 2003/09/07,19:00,30.6,54,30.1,25.7
 2003/09/07,19:15,30.4,52,30.1,26.6
 2003/09/07,19:30,30.3,52,29.9,26.2
 2003/09/07,19:45,30.1,52,29.8,26.3
 2003/09/07,20:00,30,50,29.7,26.3